C6050 KFMH-KFMH

Flight info

Callsign C6050
Flight time 0h 40m
Altitude 1000
Route VFR
Aircraft H60/M-VGD/C

Departure

Time 2026-04-30 02:05
Airport Cape Cod Coast Guard Air Station (KFMH)

Arrival

Time 2026-04-30 02:46
Airport Cape Cod Coast Guard Air Station (KFMH)
Time Latitude Longitude Altitude Speed Heading
2026-04-30 01:36 41.66508 -70.52066 129 ft 0 kts 128°
2026-04-30 01:52 41.66510 -70.52064 129 ft 2 kts 224°
2026-04-30 01:52 41.66509 -70.52063 129 ft 1 kts 317°
2026-04-30 01:52 41.66512 -70.52075 130 ft 0 kts 181°
2026-04-30 01:55 41.66508 -70.52074 127 ft 2 kts 179°
2026-04-30 01:55 41.66490 -70.52098 130 ft 5 kts 231°
2026-04-30 01:55 41.66453 -70.52143 130 ft 8 kts 196°
2026-04-30 01:55 41.66440 -70.52196 130 ft 7 kts 268°
2026-04-30 01:56 41.66435 -70.52263 127 ft 8 kts 264°
2026-04-30 01:56 41.66427 -70.52348 129 ft 12 kts 263°
2026-04-30 01:56 41.66418 -70.52491 126 ft 18 kts 264°
2026-04-30 01:56 41.66413 -70.52552 126 ft 3 kts 265°
2026-04-30 01:57 41.66410 -70.52598 125 ft 1 kts 257°
2026-04-30 01:58 41.66409 -70.52598 125 ft 0 kts 262°
2026-04-30 01:58 41.66408 -70.52618 125 ft 2 kts 268°
2026-04-30 01:58 41.66406 -70.52646 123 ft 3 kts 264°
2026-04-30 01:58 41.66406 -70.52653 122 ft 0 kts 262°
2026-04-30 01:59 41.66407 -70.52655 134 ft 2 kts 230°
2026-04-30 01:59 41.66325 -70.52762 207 ft 32 kts 181°
2026-04-30 01:59 41.66049 -70.52750 387 ft 57 kts 122°
2026-04-30 02:00 41.65756 -70.52115 476 ft 92 kts 121°
2026-04-30 02:00 41.65419 -70.51420 386 ft 81 kts 110°
2026-04-30 02:00 41.65484 -70.50836 369 ft 55 kts 60°
2026-04-30 02:00 41.65645 -70.50637 320 ft 12 kts 340°
2026-04-30 02:01 41.65717 -70.50554 301 ft 20 kts 309°
2026-04-30 02:01 41.65857 -70.50538 464 ft 26 kts 267°
2026-04-30 02:01 41.66010 -70.50617 542 ft 32 kts 256°
2026-04-30 02:01 41.66065 -70.50946 492 ft 36 kts 205°
2026-04-30 02:02 41.65882 -70.51149 444 ft 52 kts 195°
2026-04-30 02:02 41.65393 -70.51281 599 ft 92 kts 194°
2026-04-30 02:02 41.64660 -70.51548 463 ft 116 kts 197°
2026-04-30 02:02 41.63862 -70.51851 573 ft 123 kts 195°
2026-04-30 02:03 41.63048 -70.52069 638 ft 113 kts 184°
2026-04-30 02:03 41.62254 -70.52116 726 ft 124 kts 182°
2026-04-30 02:03 41.61303 -70.52098 714 ft 149 kts 181°
2026-04-30 02:03 41.60232 -70.52045 633 ft 155 kts 183°
2026-04-30 02:04 41.59167 -70.51991 528 ft 148 kts 187°
2026-04-30 02:04 41.58184 -70.51957 535 ft 136 kts 190°
2026-04-30 02:04 41.57209 -70.52020 495 ft 148 kts 197°
2026-04-30 02:04 41.56164 -70.52306 428 ft 156 kts 213°
2026-04-30 02:05 41.55176 -70.52952 653 ft 162 kts 221°
2026-04-30 02:05 41.54316 -70.53894 945 ft 157 kts 231°
2026-04-30 02:05 41.53565 -70.54900 654 ft 150 kts 238°
2026-04-30 02:05 41.52824 -70.55924 441 ft 153 kts 235°
2026-04-30 02:06 41.52105 -70.56863 382 ft 140 kts 241°
2026-04-30 02:06 41.51435 -70.57831 475 ft 149 kts 245°
2026-04-30 02:06 41.50766 -70.58982 355 ft 164 kts 243°
2026-04-30 02:06 41.49972 -70.60134 339 ft 170 kts 237°
2026-04-30 02:07 41.49170 -70.61307 352 ft 171 kts 239°
2026-04-30 02:07 41.48433 -70.62484 232 ft 149 kts 226°
2026-04-30 02:07 41.47848 -70.63096 369 ft 75 kts 172°
2026-04-30 02:07 41.47424 -70.62973 378 ft 70 kts 143°
2026-04-30 02:08 41.46941 -70.62409 355 ft 106 kts 127°
2026-04-30 02:08 41.46654 -70.61489 301 ft 108 kts 130°
2026-04-30 02:08 41.46443 -70.60573 439 ft 102 kts 130°
2026-04-30 02:08 41.46102 -70.59744 466 ft 108 kts 125°
2026-04-30 02:09 41.45913 -70.58824 389 ft 93 kts 99°
2026-04-30 02:09 41.45931 -70.58043 384 ft 77 kts 68°
2026-04-30 02:09 41.46205 -70.57476 358 ft 65 kts 75°
2026-04-30 02:09 41.46338 -70.56988 395 ft 47 kts 120°
2026-04-30 02:10 41.46239 -70.56749 394 ft 44 kts 158°
2026-04-30 02:10 41.45918 -70.56684 331 ft 47 kts 215°
2026-04-30 02:10 41.45696 -70.56824 324 ft 27 kts 275°
2026-04-30 02:10 41.45639 -70.57111 310 ft 35 kts 305°
2026-04-30 02:11 41.45633 -70.57373 330 ft 22 kts 313°
2026-04-30 02:11 41.45646 -70.57518 295 ft 10 kts 317°
2026-04-30 02:11 41.45648 -70.57540 270 ft 4 kts 315°
2026-04-30 02:11 41.45672 -70.57550 284 ft 9 kts 325°
2026-04-30 02:12 41.45757 -70.57600 298 ft 40 kts 356°
2026-04-30 02:12 41.46104 -70.57511 627 ft 36 kts 132°
2026-04-30 02:12 41.45908 -70.57197 463 ft 75 kts 152°
2026-04-30 02:12 41.45603 -70.56556 391 ft 100 kts 95°
2026-04-30 02:13 41.45621 -70.55508 345 ft 121 kts 94°
2026-04-30 02:13 41.45518 -70.54482 394 ft 102 kts 127°
2026-04-30 02:13 41.45047 -70.53839 540 ft 100 kts 130°
2026-04-30 02:13 41.44553 -70.53160 426 ft 108 kts 125°
2026-04-30 02:14 41.44075 -70.52344 416 ft 115 kts 122°
2026-04-30 02:14 41.43631 -70.51475 464 ft 115 kts 119°
2026-04-30 02:14 41.43201 -70.50564 594 ft 113 kts 117°
2026-04-30 02:14 41.42815 -70.49711 430 ft 107 kts 121°
2026-04-30 02:15 41.42365 -70.48880 543 ft 112 kts 123°
2026-04-30 02:15 41.41865 -70.47996 465 ft 128 kts 125°
2026-04-30 02:15 41.41338 -70.46981 350 ft 137 kts 118°
2026-04-30 02:15 41.40862 -70.45910 334 ft 133 kts 120°
2026-04-30 02:16 41.40359 -70.44903 335 ft 128 kts 121°
2026-04-30 02:16 41.39876 -70.43937 307 ft 123 kts 122°
2026-04-30 02:16 41.39393 -70.42972 207 ft 129 kts 120°
2026-04-30 02:16 41.38912 -70.42048 240 ft 117 kts 122°
2026-04-30 02:17 41.38451 -70.41181 232 ft 111 kts 120°
2026-04-30 02:17 41.37998 -70.40336 265 ft 113 kts 125°
2026-04-30 02:17 41.37533 -70.39489 241 ft 115 kts 122°
2026-04-30 02:17 41.37092 -70.38565 232 ft 121 kts 121°
2026-04-30 02:18 41.36618 -70.37656 283 ft 120 kts 123°
2026-04-30 02:18 41.36152 -70.36795 335 ft 112 kts 122°
2026-04-30 02:18 41.35701 -70.35944 308 ft 114 kts 120°
2026-04-30 02:18 41.35258 -70.35054 307 ft 117 kts 120°
2026-04-30 02:19 41.34786 -70.34143 239 ft 121 kts 123°
2026-04-30 02:19 41.34326 -70.33244 269 ft 118 kts 119°
2026-04-30 02:19 41.33887 -70.32310 270 ft 117 kts 119°
2026-04-30 02:19 41.33415 -70.31433 272 ft 116 kts 124°
2026-04-30 02:20 41.32977 -70.30566 267 ft 113 kts 122°
2026-04-30 02:20 41.32526 -70.29701 256 ft 114 kts 126°
2026-04-30 02:20 41.32098 -70.28831 262 ft 114 kts 124°
2026-04-30 02:20 41.31678 -70.27900 180 ft 117 kts 129°
2026-04-30 02:21 41.31280 -70.26935 214 ft 119 kts 132°
2026-04-30 02:21 41.30837 -70.26012 255 ft 119 kts 130°
2026-04-30 02:21 41.30363 -70.25177 339 ft 92 kts 124°
2026-04-30 02:21 41.29994 -70.24679 561 ft 72 kts 123°
2026-04-30 02:22 41.29682 -70.24104 425 ft 91 kts 114°
2026-04-30 02:22 41.29415 -70.23187 381 ft 119 kts 104°
2026-04-30 02:22 41.29202 -70.22044 201 ft 134 kts 101°
2026-04-30 02:22 41.29103 -70.20778 284 ft 136 kts 101°
2026-04-30 02:23 41.29022 -70.19520 350 ft 136 kts 103°
2026-04-30 02:23 41.28971 -70.18317 534 ft 131 kts 105°
2026-04-30 02:23 41.28953 -70.17090 426 ft 132 kts 112°
2026-04-30 02:23 41.28784 -70.15963 571 ft 123 kts 107°
2026-04-30 02:24 41.28550 -70.14872 484 ft 119 kts 112°
2026-04-30 02:24 41.28319 -70.13903 589 ft 106 kts 115°
2026-04-30 02:24 41.28147 -70.12958 474 ft 104 kts 106°
2026-04-30 02:24 41.28072 -70.12015 422 ft 94 kts 104°
2026-04-30 02:25 41.28017 -70.11338 468 ft 45 kts 97°
2026-04-30 02:25 41.27992 -70.11167 349 ft 7 kts 91°
2026-04-30 02:25 41.28011 -70.11097 369 ft 22 kts 52°
2026-04-30 02:25 41.28160 -70.10880 429 ft 38 kts 79°
2026-04-30 02:26 41.28226 -70.10498 355 ft 48 kts 126°
2026-04-30 02:26 41.28048 -70.10139 351 ft 51 kts 154°
2026-04-30 02:26 41.27687 -70.10026 378 ft 55 kts 222°
2026-04-30 02:26 41.27424 -70.10404 298 ft 64 kts 315°
2026-04-30 02:27 41.27520 -70.10803 271 ft 24 kts 79°
2026-04-30 02:27 41.27558 -70.10588 283 ft 40 kts 90°
2026-04-30 02:27 41.27547 -70.10374 256 ft 7 kts 68°
2026-04-30 02:27 41.27565 -70.10273 156 ft 7 kts 74°
2026-04-30 02:28 41.27573 -70.10218 95 ft 5 kts 84°
2026-04-30 02:28 41.27577 -70.10196 54 ft 2 kts 89°
2026-04-30 02:28 41.27577 -70.10188 46 ft 0 kts 76°
2026-04-30 02:28 41.27574 -70.10190 64 ft 0 kts 79°
2026-04-30 02:29 41.27570 -70.10188 151 ft 6 kts 77°
2026-04-30 02:29 41.27620 -70.10005 198 ft 22 kts 139°
2026-04-30 02:29 41.27602 -70.10005 160 ft 16 kts 191°
2026-04-30 02:29 41.27478 -70.09951 197 ft 8 kts 210°
2026-04-30 02:30 41.27499 -70.09975 177 ft 8 kts 204°
2026-04-30 02:30 41.27502 -70.09966 210 ft 11 kts 206°
2026-04-30 02:30 41.27337 -70.10121 272 ft 40 kts 246°
2026-04-30 02:30 41.27216 -70.10324 374 ft 20 kts
2026-04-30 02:31 41.27444 -70.10459 403 ft 57 kts
2026-04-30 02:31 41.27977 -70.10729 546 ft 108 kts 346°
2026-04-30 02:31 41.28806 -70.11103 503 ft 139 kts 345°
2026-04-30 02:31 41.29740 -70.11492 417 ft 139 kts 350°
2026-04-30 02:32 41.30602 -70.11820 453 ft 112 kts 352°
2026-04-30 02:32 41.31283 -70.12129 607 ft 102 kts 353°
2026-04-30 02:32 41.31959 -70.12440 526 ft 106 kts 353°
2026-04-30 02:32 41.32667 -70.12782 395 ft 110 kts 356°
2026-04-30 02:33 41.33401 -70.13138 442 ft 108 kts
2026-04-30 02:33 41.34101 -70.13497 680 ft 112 kts
2026-04-30 02:33 41.34893 -70.13825 747 ft 125 kts
2026-04-30 02:33 41.35762 -70.14144 580 ft 131 kts
2026-04-30 02:34 41.36646 -70.14478 599 ft 133 kts
2026-04-30 02:34 41.37542 -70.14796 582 ft 132 kts
2026-04-30 02:34 41.38423 -70.15090 704 ft 128 kts
2026-04-30 02:34 41.39287 -70.15401 654 ft 130 kts
2026-04-30 02:35 41.40211 -70.15671 578 ft 140 kts
2026-04-30 02:35 41.41168 -70.15885 457 ft 144 kts
2026-04-30 02:35 41.42182 -70.16151 488 ft 151 kts 359°
2026-04-30 02:35 41.43239 -70.16408 529 ft 158 kts
2026-04-30 02:36 41.44324 -70.16675 559 ft 159 kts 359°
2026-04-30 02:36 41.45380 -70.17107 606 ft 160 kts 347°
2026-04-30 02:36 41.46303 -70.17915 665 ft 156 kts 332°
2026-04-30 02:36 41.47095 -70.18799 683 ft 143 kts 331°
2026-04-30 02:37 41.47755 -70.19664 799 ft 123 kts 332°
2026-04-30 02:37 41.48387 -70.20494 746 ft 133 kts 332°
2026-04-30 02:37 41.49046 -70.21373 669 ft 133 kts 331°
2026-04-30 02:37 41.49720 -70.22188 678 ft 136 kts 326°
2026-04-30 02:38 41.50381 -70.23035 658 ft 122 kts 319°
2026-04-30 02:38 41.50925 -70.23893 775 ft 123 kts 316°
2026-04-30 02:38 41.51490 -70.24765 757 ft 118 kts 315°
2026-04-30 02:38 41.52035 -70.25549 751 ft 111 kts 322°
2026-04-30 02:39 41.52545 -70.26298 682 ft 109 kts 318°
2026-04-30 02:39 41.53053 -70.27092 624 ft 116 kts 314°
2026-04-30 02:39 41.53619 -70.27964 700 ft 133 kts 317°
2026-04-30 02:39 41.54210 -70.28869 738 ft 125 kts 319°
2026-04-30 02:40 41.54785 -70.29647 953 ft 115 kts 319°
2026-04-30 02:40 41.55362 -70.30412 883 ft 125 kts 322°
2026-04-30 02:40 41.56008 -70.31352 949 ft 146 kts 314°
2026-04-30 02:40 41.56710 -70.32404 909 ft 153 kts 317°
2026-04-30 02:41 41.57475 -70.33425 835 ft 156 kts 319°
2026-04-30 02:41 41.58196 -70.34496 864 ft 154 kts 314°
2026-04-30 02:41 41.58890 -70.35543 816 ft 146 kts 316°
2026-04-30 02:41 41.59526 -70.36543 840 ft 140 kts 309°
2026-04-30 02:42 41.60013 -70.37306 992 ft 104 kts 303°
2026-04-30 02:42 41.60463 -70.38227 917 ft 129 kts 295°
2026-04-30 02:42 41.60846 -70.39344 820 ft 133 kts 295°
2026-04-30 02:42 41.61147 -70.40285 697 ft 93 kts 304°
2026-04-30 02:43 41.61455 -70.41124 578 ft 109 kts 311°
2026-04-30 02:43 41.61821 -70.42073 696 ft 119 kts 307°
2026-04-30 02:43 41.62194 -70.43111 700 ft 131 kts 304°
2026-04-30 02:43 41.62641 -70.44222 704 ft 137 kts 305°
2026-04-30 02:44 41.63018 -70.45316 996 ft 121 kts 302°
2026-04-30 02:44 41.63582 -70.46134 887 ft 125 kts 323°
2026-04-30 02:44 41.64197 -70.46937 810 ft 124 kts 316°
2026-04-30 02:44 41.64918 -70.47656 723 ft 133 kts 317°
2026-04-30 02:45 41.65683 -70.48362 915 ft 128 kts 297°
2026-04-30 02:45 41.66188 -70.49080 1239 ft 88 kts 254°
2026-04-30 02:45 41.66419 -70.49780 1068 ft 81 kts 272°
2026-04-30 02:45 41.66507 -70.50581 558 ft 93 kts 272°
2026-04-30 02:46 41.66475 -70.51202 349 ft 33 kts 272°
2026-04-30 02:46 41.66478 -70.51370 184 ft 19 kts 282°
2026-04-30 02:46 41.66489 -70.51477 139 ft 6 kts 270°
2026-04-30 02:46 41.66479 -70.51659 127 ft 23 kts 266°
2026-04-30 02:47 41.66468 -70.51795 133 ft 9 kts 264°
2026-04-30 02:47 41.66461 -70.51874 133 ft 10 kts 265°
2026-04-30 02:47 41.66453 -70.52004 129 ft 15 kts 266°
2026-04-30 02:47 41.66467 -70.52091 130 ft 7 kts 15°
2026-04-30 02:48 41.66495 -70.52086 128 ft 1 kts 270°
2026-04-30 02:48 41.66476 -70.52108 131 ft 3 kts 177°
2026-04-30 02:48 41.66470 -70.52108 130 ft 0 kts 177°
2026-04-30 02:48 41.66469 -70.52108 130 ft 1 kts 181°
2026-04-30 02:49 41.66468 -70.52107 130 ft 0 kts 182°